Precipitable_Water
1.22 1.18 1.13 1.10 1.09 1.10 1.09 1.08 1.10 1.07 1.05 1.04 1.00 0.96 0.92 0.93 0.94 0.92 0.92 0.92 0.90 0.87 0.86 0.86 0.87 0.88 0.89 0.90 0.92 0.92 0.93 0.95 0.97 0.99 0.99 0.99 1.01 1.03 1.03 1.04 1.09 1.14
1.18 1.14 1.12 1.09 1.08 1.09 1.11 1.11 1.09 1.06 1.02 1.01 0.98 0.95 0.94 0.93 0.93 0.91 0.89 0.86 0.85 0.83 0.85 0.86 0.87 0.87 0.88 0.89 0.92 0.93 0.94 0.97 0.96 1.02 0.99 1.02 1.06 1.08 1.07 1.11 1.14 1.18
1.16 1.13 1.12 1.10 1.08 1.09 1.09 1.11 1.09 1.05 1.01 0.99 0.96 0.94 0.92 0.92 0.88 0.87 0.85 0.82 0.80 0.82 0.83 0.85 0.85 0.86 0.88 0.90 0.92 0.94 0.95 0.97 0.95 1.02 1.04 1.04 1.08 1.08 1.12 1.17 1.17 1.18
1.18 1.16 1.13 1.12 1.11 1.09 1.11 1.09 1.05 1.02 1.00 0.95 0.92 0.91 0.89 0.87 0.84 0.82 0.81 0.80 0.79 0.79 0.82 0.83 0.84 0.86 0.89 0.90 0.92 0.92 0.94 0.96 1.02 1.06 1.04 1.06 1.08 1.10 1.14 1.17 1.17 1.18
1.17 1.15 1.13 1.12 1.11 1.10 1.09 1.06 1.00 0.97 0.95 0.93 0.91 0.88 0.84 0.81 0.79 0.77 0.77 0.78 0.79 0.80 0.81 0.82 0.85 0.87 0.89 0.90 0.92 0.91 0.94 0.94 0.98 1.02 1.01 1.01 1.06 1.10 1.14 1.16 1.17 1.16
1.16 1.15 1.12 1.10 1.10 1.09 1.06 1.02 0.98 0.95 0.93 0.88 0.85 0.84 0.80 0.78 0.77 0.75 0.76 0.78 0.80 0.81 0.81 0.84 0.85 0.87 0.89 0.90 0.92 0.93 0.94 0.94 0.97 0.98 0.98 1.01 1.04 1.10 1.14 1.15 1.14 1.15
1.13 1.12 1.10 1.11 1.10 1.09 1.05 1.00 0.96 0.93 0.90 0.86 0.83 0.79 0.76 0.74 0.75 0.76 0.78 0.80 0.81 0.82 0.82 0.83 0.84 0.85 0.90 0.91 0.93 0.93 0.94 0.96 0.98 0.99 0.98 1.03 1.06 1.08 1.14 1.15 1.16 1.17
1.12 1.11 1.10 1.09 1.07 1.05 0.99 0.94 0.92 0.89 0.86 0.83 0.77 0.76 0.75 0.74 0.75 0.78 0.80 0.82 0.82 0.82 0.83 0.85 0.85 0.89 0.92 0.93 0.92 0.92 0.93 0.96 0.96 0.97 0.96 0.99 1.02 1.03 1.06 1.10 1.11 1.09
1.11 1.08 1.06 1.05 1.02 0.99 0.94 0.92 0.90 0.87 0.84 0.78 0.75 0.74 0.76 0.76 0.77 0.79 0.81 0.83 0.82 0.82 0.83 0.84 0.87 0.90 0.92 0.92 0.92 0.92 0.91 0.92 0.95 0.95 0.95 0.94 0.94 0.97 1.00 1.03 1.02 1.02
1.08 1.06 1.02 1.00 0.96 0.95 0.92 0.89 0.87 0.84 0.81 0.77 0.75 0.75 0.75 0.78 0.81 0.81 0.82 0.82 0.81 0.82 0.83 0.85 0.87 0.88 0.89 0.90 0.91 0.91 0.91 0.91 0.93 0.94 0.95 0.95 0.96 0.97 0.99 1.00 0.98 0.96
1.06 1.03 0.99 0.97 0.95 0.95 0.90 0.87 0.84 0.82 0.79 0.75 0.75 0.75 0.77 0.79 0.81 0.82 0.82 0.82 0.81 0.82 0.83 0.84 0.84 0.85 0.84 0.86 0.88 0.91 0.91 0.91 0.92 0.92 0.94 0.95 0.96 0.97 0.98 0.98 0.96 0.95
1.05 1.01 0.99 0.98 0.97 0.94 0.89 0.85 0.83 0.80 0.77 0.76 0.77 0.76 0.78 0.80 0.81 0.82 0.82 0.82 0.82 0.83 0.82 0.81 0.81 0.81 0.81 0.82 0.84 0.87 0.89 0.90 0.90 0.91 0.92 0.93 0.94 0.95 0.96 0.96 0.94 0.94
1.06 1.03 1.01 0.99 0.96 0.92 0.87 0.83 0.80 0.79 0.77 0.76 0.79 0.79 0.78 0.79 0.81 0.82 0.83 0.82 0.81 0.80 0.79 0.78 0.78 0.79 0.80 0.81 0.82 0.85 0.87 0.87 0.87 0.88 0.89 0.92 0.93 0.94 0.96 0.96 0.95 0.94
1.05 1.02 0.99 0.97 0.95 0.90 0.85 0.82 0.81 0.79 0.79 0.80 0.81 0.80 0.80 0.80 0.81 0.80 0.80 0.80 0.80 0.79 0.79 0.78 0.77 0.77 0.78 0.80 0.80 0.83 0.85 0.85 0.86 0.86 0.88 0.89 0.91 0.92 0.93 0.94 0.94 0.93
1.01 0.97 0.95 0.93 0.90 0.87 0.84 0.82 0.80 0.81 0.81 0.81 0.82 0.82 0.82 0.82 0.82 0.81 0.79 0.78 0.79 0.79 0.78 0.78 0.77 0.77 0.78 0.78 0.79 0.81 0.86 0.84 0.85 0.86 0.86 0.87 0.88 0.89 0.91 0.92 0.93 0.94
0.98 0.95 0.93 0.91 0.88 0.84 0.83 0.82 0.82 0.82 0.82 0.82 0.83 0.82 0.82 0.82 0.82 0.81 0.80 0.78 0.77 0.78 0.78 0.77 0.77 0.78 0.79 0.80 0.81 0.81 0.85 0.84 0.85 0.85 0.85 0.86 0.86 0.87 0.88 0.90 0.90 0.91
0.97 0.95 0.92 0.89 0.87 0.85 0.84 0.83 0.83 0.84 0.84 0.84 0.83 0.83 0.83 0.83 0.82 0.80 0.79 0.79 0.78 0.77 0.77 0.77 0.77 0.78 0.79 0.81 0.81 0.82 0.83 0.84 0.83 0.83 0.83 0.83 0.84 0.83 0.82 0.84 0.86 0.89
0.98 0.95 0.92 0.88 0.87 0.84 0.83 0.84 0.85 0.85 0.84 0.84 0.84 0.83 0.83 0.84 0.81 0.80 0.80 0.79 0.78 0.78 0.76 0.76 0.77 0.78 0.79 0.79 0.80 0.79 0.81 0.82 0.82 0.81 0.81 0.81 0.81 0.82 0.82 0.83 0.84 0.85
0.95 0.93 0.89 0.86 0.84 0.84 0.84 0.85 0.85 0.84 0.84 0.83 0.82 0.84 0.83 0.81 0.80 0.80 0.79 0.79 0.78 0.76 0.75 0.76 0.76 0.76 0.76 0.77 0.78 0.78 0.79 0.80 0.80 0.80 0.78 0.78 0.80 0.81 0.82 0.82 0.82 0.82
0.94 0.91 0.87 0.85 0.84 0.85 0.85 0.85 0.84 0.83 0.84 0.84 0.84 0.84 0.82 0.81 0.80 0.79 0.78 0.77 0.76 0.76 0.75 0.75 0.74 0.74 0.75 0.76 0.76 0.77 0.78 0.78 0.78 0.77 0.76 0.75 0.76 0.77 0.78 0.79 0.80 0.79
0.92 0.89 0.86 0.85 0.84 0.85 0.85 0.84 0.83 0.83 0.83 0.84 0.84 0.82 0.81 0.79 0.78 0.77 0.77 0.77 0.77 0.77 0.75 0.73 0.73 0.74 0.74 0.75 0.75 0.76 0.77 0.79 0.78 0.76 0.74 0.73 0.72 0.73 0.73 0.75 0.77 0.79
0.91 0.88 0.86 0.86 0.85 0.84 0.83 0.82 0.83 0.83 0.82 0.84 0.83 0.82 0.82 0.82 0.80 0.80 0.77 0.76 0.77 0.77 0.75 0.73 0.74 0.74 0.75 0.75 0.75 0.75 0.77 0.77 0.76 0.75 0.73 0.72 0.70 0.70 0.69 0.70 0.72 0.74
0.91 0.88 0.86 0.85 0.84 0.83 0.82 0.82 0.82 0.83 0.84 0.85 0.82 0.81 0.80 0.79 0.78 0.77 0.76 0.75 0.75 0.76 0.76 0.74 0.74 0.75 0.75 0.75 0.75 0.76 0.76 0.76 0.75 0.73 0.72 0.70 0.68 0.68 0.67 0.66 0.67 0.68
0.91 0.89 0.86 0.84 0.83 0.82 0.82 0.83 0.83 0.84 0.83 0.84 0.81 0.79 0.78 0.78 0.77 0.75 0.75 0.75 0.74 0.74 0.75 0.74 0.74 0.75 0.75 0.74 0.73 0.74 0.74 0.74 0.72 0.69 0.67 0.65 0.63 0.63 0.62 0.61 0.60 0.60
0.91 0.89 0.87 0.85 0.82 0.82 0.83 0.82 0.82 0.82 0.83 0.83 0.81 0.79 0.76 0.75 0.74 0.73 0.73 0.74 0.75 0.75 0.75 0.74 0.73 0.73 0.73 0.73 0.72 0.71 0.70 0.70 0.66 0.63 0.60 0.58 0.55 0.52 0.52 0.51 0.50 0.49
0.92 0.89 0.87 0.86 0.83 0.83 0.83 0.83 0.83 0.82 0.80 0.79 0.78 0.76 0.74 0.73 0.72 0.71 0.69 0.70 0.72 0.72 0.72 0.72 0.70 0.68 0.68 0.68 0.67 0.65 0.63 0.61 0.60 0.55 0.49 0.46 0.44 0.43 0.41 0.40 0.40 0.39
Wind_Speed
13 12 11 10 10 10 11 10 11 11 11 11 12 12 13 14 15 16 16 16 16 16 16 16 17 17 17 18 18 19 19 19 20 20 21 21 21 22 22 22 23 23
12 12 11 11 11 11 11 11 11 11 11 11 12 13 13 14 15 15 15 16 16 16 16 16 17 17 18 18 18 19 19 19 20 20 21 22 22 22 22 22 22 23
12 12 12 12 12 12 12 11 11 11 11 11 12 13 14 14 14 15 15 15 16 16 16 17 17 18 18 18 18 19 19 20 20 20 21 22 21 21 21 22 22 23
13 12 12 12 13 12 12 12 11 11 11 11 12 13 14 14 14 14 15 16 16 16 17 17 18 18 18 18 18 19 19 19 20 20 21 21 21 21 21 22 22 22
13 13 12 12 12 12 12 12 12 12 12 12 12 13 13 14 14 14 15 16 16 16 17 17 18 18 18 18 18 18 19 19 19 20 21 21 21 20 20 21 22 22
13 13 12 12 12 12 12 12 12 12 12 12 13 13 14 14 14 14 15 16 16 17 17 18 18 18 18 18 18 18 18 19 20 20 20 21 21 20 20 21 21 22
12 12 12 12 12 12 12 12 12 12 12 12 13 13 13 13 14 14 15 16 16 17 17 17 18 18 18 18 18 18 18 19 19 20 20 20 20 20 20 20 21 21
12 12 12 12 12 12 12 12 12 12 12 12 12 13 13 13 14 15 15 16 16 16 17 17 17 17 17 18 18 19 19 19 19 20 20 20 20 20 20 20 21 21
12 13 13 13 12 12 12 11 11 11 12 12 12 12 12 13 14 15 15 16 16 16 16 16 17 17 18 18 18 19 19 20 20 19 19 19 20 20 20 20 21 21
13 13 13 13 13 12 12 11 11 11 12 12 12 12 12 13 14 14 15 15 15 16 16 16 17 17 18 18 18 19 19 20 20 19 19 19 19 19 19 19 20 20
14 13 13 13 13 12 12 12 11 11 11 11 11 11 12 13 13 14 14 15 15 16 16 16 17 17 18 18 18 19 19 19 19 19 18 18 18 18 18 18 19 19
14 14 13 13 12 12 12 12 11 11 11 11 11 11 12 12 13 13 14 14 15 15 16 16 17 17 18 18 18 19 18 18 18 18 18 17 17 17 18 18 18 18
14 13 13 13 12 12 12 12 11 11 11 11 11 11 12 12 13 13 14 14 15 15 16 16 17 17 18 18 18 18 18 18 17 17 17 17 17 17 17 17 17 17
13 13 13 13 12 12 12 12 11 11 11 11 11 11 11 12 12 13 13 14 15 15 16 16 17 17 17 18 18 18 18 17 17 17 17 17 17 17 17 17 16 16
12 12 12 12 12 12 12 12 11 11 10 10 10 11 11 12 12 13 13 14 15 15 16 16 16 16 17 17 17 17 17 17 17 16 16 16 16 16 15 15 15 15
11 12 12 12 12 12 12 12 11 11 10 10 10 10 11 12 12 13 13 14 14 15 15 16 16 16 17 17 17 17 16 16 16 16 15 15 15 15 15 15 15 15
11 12 11 12 12 12 12 11 11 10 10 10 10 10 11 12 12 12 13 13 14 14 15 15 15 15 16 17 17 17 16 15 15 14 14 14 14 14 14 14 14 14
12 11 11 11 11 11 11 11 11 10 10 10 10 10 11 11 12 12 13 13 14 14 14 14 15 16 16 17 17 16 15 14 14 14 13 13 13 13 13 14 14 14
12 11 11 11 11 11 11 11 10 10 10 10 10 10 11 11 12 12 13 13 13 14 14 14 15 16 16 16 16 15 15 14 13 12 12 12 12 13 13 13 13 14
12 11 11 11 11 11 11 11 10 10 10 11 11 11 11 11 12 12 13 13 13 14 14 14 15 16 16 16 15 14 14 13 12 12 11 11 12 12 13 13 13 13
13 12 11 11 11 11 11 11 11 11 11 11 11 12 12 12 12 13 13 14 13 13 13 13 14 15 15 14 14 13 13 13 12 11 11 11 12 12 13 13 13 13
13 13 12 12 12 12 11 11 11 11 11 11 11 12 12 13 13 13 13 13 13 13 13 13 13 14 14 14 13 13 13 12 11 11 11 11 12 13 13 13 14 13
13 13 13 13 12 12 12 11 11 11 11 11 11 12 12 13 13 13 13 13 13 12 12 12 13 13 14 13 12 12 12 11 11 12 12 12 12 13 13 13 13 13
13 13 13 13 13 12 12 12 11 11 11 11 11 12 12 13 13 13 12 12 12 12 12 12 12 13 13 13 13 12 12 11 11 12 12 12 12 12 12 12 13 13
13 13 13 13 13 13 12 12 11 11 11 11 12 12 12 12 12 12 12 11 11 12 12 12 12 12 12 13 13 12 12 11 11 11 11 11 12 11 11 11 12 12
13 13 13 13 13 12 12 12 11 11 11 11 11 11 11 11 11 11 11 10 11 11 11 11 11 11 12 12 12 12 12 11 11 11 11 11 11 11 11 11 12 12
Wind_Direction
210 214 218 225 233 240 245 251 258 265 272 278 284 290 295 300 302 302 303 303 304 304 304 304 303 303 303 303 303 303 303 303 303 304 304 305 306 307 309 309 309 310
214 218 223 229 235 240 245 252 259 265 271 278 285 291 297 301 303 303 305 305 306 306 306 305 305 305 305 304 304 304 304 304 304 304 305 306 307 308 309 310 310 311
218 222 226 231 236 241 247 252 259 264 271 278 286 293 298 301 303 304 306 307 308 307 307 307 307 306 306 305 305 304 304 304 305 306 306 307 308 308 310 311 312 312
221 225 229 234 238 242 247 252 258 264 271 279 287 294 298 301 303 305 307 308 308 307 307 307 307 307 307 307 306 305 305 305 306 307 308 308 309 309 310 312 313 313
225 228 232 235 239 242 247 253 259 264 271 279 287 294 297 300 303 305 307 308 308 308 307 308 308 308 308 308 307 307 307 307 307 308 309 309 310 310 312 313 314 314
226 230 233 236 239 243 247 254 259 264 271 278 286 293 296 300 304 306 308 309 308 308 308 309 309 309 309 309 308 308 308 309 309 309 310 310 310 311 312 315 315 316
225 230 233 237 241 244 249 254 259 264 270 278 285 292 296 301 305 307 309 309 309 309 309 309 310 310 310 309 309 309 309 309 311 311 311 311 311 311 313 315 317 318
226 230 234 238 241 245 250 254 258 263 270 278 284 290 296 301 304 306 307 308 309 309 309 310 311 311 311 310 310 310 309 310 311 312 312 312 311 312 313 315 317 318
231 235 237 239 242 246 250 253 257 263 270 277 283 289 294 299 302 304 307 308 309 310 310 311 312 313 312 311 310 310 310 311 311 312 313 312 311 311 313 314 316 318
238 240 240 240 243 247 250 252 256 262 270 277 282 287 292 296 300 303 306 308 309 311 312 312 313 314 313 312 311 311 311 311 311 311 312 312 312 312 314 315 318 320
240 241 240 241 243 245 247 251 256 262 270 276 280 285 290 295 299 303 306 308 309 311 312 313 314 314 314 314 313 312 312 312 312 311 312 312 312 313 314 315 318 321
238 239 239 240 242 244 246 250 256 262 268 274 278 283 288 294 299 303 306 307 310 312 313 314 315 315 315 315 314 314 313 313 313 312 311 311 311 313 314 315 317 319
237 238 238 239 241 243 245 249 255 261 267 271 276 282 288 294 299 303 305 307 310 311 313 314 314 315 315 315 315 314 314 314 313 312 311 310 311 312 313 314 316 317
237 237 236 237 239 241 243 248 254 259 264 269 276 283 289 294 298 301 304 307 309 311 312 313 314 315 316 317 316 315 314 314 313 314 313 311 312 313 314 315 316 317
235 233 232 233 235 238 242 247 253 257 262 269 276 283 289 294 298 301 304 307 309 311 312 313 314 316 317 318 317 316 315 314 314 315 314 314 314 315 317 318 318 319
230 228 229 231 234 238 241 246 251 256 261 268 276 283 289 293 298 301 305 308 310 312 313 314 316 317 319 319 318 317 315 315 314 315 315 316 317 318 320 321 320 321
232 230 229 231 235 239 242 245 249 254 260 268 275 282 288 292 297 301 304 308 310 311 313 314 316 319 320 320 318 317 316 315 315 316 316 318 320 321 322 322 323 324
233 230 230 233 237 241 244 246 249 254 261 269 275 281 286 291 296 300 304 307 309 311 313 314 317 319 319 318 317 318 318 317 317 317 318 319 321 322 323 324 325 326
229 227 229 234 238 242 245 247 251 256 263 269 275 280 284 290 296 300 304 306 308 311 313 314 315 317 317 316 316 318 319 319 321 323 323 324 325 325 325 326 327 327
229 229 232 236 240 243 245 249 254 259 265 270 274 279 283 289 295 300 303 306 308 310 311 312 313 314 315 315 316 319 320 319 323 328 329 330 332 331 329 328 328 327
232 234 238 241 244 244 246 250 255 259 264 269 274 279 285 290 295 299 303 305 307 308 309 311 314 315 316 315 317 321 320 319 322 326 328 330 334 335 333 331 328 327
233 237 241 243 245 246 248 251 255 259 263 268 273 279 285 290 295 299 302 304 305 306 309 312 315 317 318 316 318 320 318 317 320 323 325 327 330 332 334 333 330 328
236 238 240 242 244 245 248 251 254 258 263 268 273 280 286 291 295 298 301 303 304 305 308 311 314 317 317 316 317 318 316 315 318 320 322 326 328 329 331 332 333 331
237 237 238 240 242 243 247 250 253 257 262 268 274 280 286 290 294 298 300 302 304 306 309 311 313 315 316 315 316 317 315 313 315 317 320 324 327 329 330 331 335 337
235 235 236 238 239 242 246 248 252 256 262 269 276 281 285 290 294 297 299 302 305 307 309 310 310 312 314 314 315 317 316 314 314 317 320 323 325 328 330 333 336 339
231 232 234 236 238 241 244 247 252 257 263 270 276 280 284 290 293 296 299 301 304 306 308 309 310 311 313 314 314 316 317 315 316 319 322 323 324 327 331 335 336 338